1375920029307,1.98150
1375920089307,1.97195
1375920149307,1.96014
1375920209307,1.98450
1375920269307,1.97999
1375920329307,1.96597
1375920389307,1.97658
1375920449307,1.98241
1375920509307,1.97516
1375920569307,1.97508
1375920629307,1.97350
1375920689307,1.98733
1375920749307,1.97296
1375920809307,1.97659
1375920869307,1.95086
1375920929307,1.96232
1375920989307,1.95648
1375921049307,1.96205
1375921109307,1.97244
1375921169307,1.98276
1375921229307,1.96279
1375921289307,1.98080
1375921349307,1.96408
1375921409307,1.94369
1375921469307,1.94558
1375921529307,1.94923
1375921589307,1.94673
1375921649307,1.95285
1375921709307,1.99125
1375921769307,1.94810
1375921829307,1.96723
1375921889307,1.97313
1375921949307,1.96802
1375922009307,1.95199
1375922069307,1.94943
1375922129307,1.96491
1375922189307,1.96465
1375922249307,1.93781
1375922309307,1.98169
1375922369307,1.95583
1375922429307,1.96209
1375922489307,1.93857
1375922549307,1.96348
1375922609307,1.97364
1375922669307,1.96598
1375922729307,1.96202
1375922789307,1.94325
1375922849307,1.96235
1375922909307,1.95581
1375922969307,1.96279
1375923029307,1.98913
1375923089307,1.94878
1375923149307,1.98110
1375923209307,1.96842
1375923269307,1.96601
1375923329307,1.96080
1375923389307,1.97866
1375923449307,1.95917
1375923509307,1.95008
1375923569307,1.96983
1375923629318,1.97514
1375923689318,1.96798
1375923749318,1.99224
1375923809318,1.97662
1375923869318,1.95929
1375923929318,1.95857
1375923989318,1.95541
1375924049318,1.96718
1375924109318,1.97220
1375924169318,1.96558
1375924229318,1.98878
1375924289318,1.99085
1375924349318,1.97354
1375924409318,1.96295
1375924469318,1.98144
1375924529318,1.95185
1375924589318,1.98072
1375924649318,1.95781
1375924709318,1.95838
1375924769318,1.94418
1375924829318,1.96673
1375924889318,1.97012
1375924949318,1.99427
1375925009318,1.95214
1375925069318,1.95194
1375925129318,1.97558
1375925189318,1.96106
1375925249318,1.96388
1375925309318,1.97387
1375925369318,1.99115
1375925429318,1.95713
1375925489318,1.97658
1375925549318,1.99684
1375925609318,1.96095
1375925669318,1.97262
1375925729318,1.96763
1375925789318,1.95492
1375925849318,1.99373
1375925909318,1.98362
1375925969318,2.00406
1375926029318,1.98739
1375926089318,1.96858
1375926149318,1.95311
1375926209318,1.97642
1375926269318,1.96800
1375926329318,1.96632
1375926389318,1.96954
1375926449318,1.94946
1375926509318,1.98250
1375926569318,1.95612
1375926629318,1.95105
1375926689318,1.95909
1375926749318,1.97290
1375926809318,1.94991
1375926869318,1.96278
1375926929318,1.96454
1375926989318,1.97019
1375927049318,1.96390
1375927109318,1.93932
1375927169318,1.94781
1375927229328,1.94949
1375927289328,1.95232
1375927349328,1.96874
1375927409328,1.98892
1375927469328,1.95141
1375927529328,1.95481
1375927589328,1.96424
1375927649328,1.93692
1375927709328,1.95312
1375927769328,1.97455
1375927829328,1.96072
1375927889328,1.94448
1375927949328,1.96227
1375928009328,1.95556
1375928069328,1.96188
1375928129328,1.95847
1375928189328,1.97870
1375928249328,1.95913
1375928309328,1.95352
1375928369328,1.97577
1375928429328,1.95444
1375928489328,1.94735
1375928549328,1.96799
1375928609328,1.95770
1375928669328,1.97344
1375928729328,1.94113
1375928789328,1.93390
1375928849328,1.94715
1375928909328,1.96197
1375928969328,1.95145
1375929029328,1.97724
1375929089328,1.94989
1375929149328,1.98166
1375929209328,1.95339
1375929269328,1.97038
1375929329328,1.94594
1375929389328,1.96924
1375929449328,1.96536
1375929509328,1.96341
1375929569328,1.96098
1375929629328,1.96413
1375929689328,1.96667
1375929749328,1.98683
1375929809328,1.95807
1375929869328,1.94439
1375929929328,1.92305
1375929989328,1.97323
1375930049328,1.95303
1375930109328,1.92552
1375930169328,1.95765
1375930229328,1.94276
1375930289328,1.95708
1375930349328,1.94448
1375930409328,1.96757
1375930469328,1.97124
1375930529328,1.95438
1375930589328,1.96712
1375930649328,1.97938
1375930709328,1.98029
1375930769328,1.98376
1375930829338,1.98597
1375930889338,1.92820
1375930949338,1.96951
1375931009338,1.95643
1375931069338,1.92793
1375931129338,1.93986
1375931189338,1.97108
1375931249338,1.95580
1375931309338,1.96362
1375931369338,1.99583
1375931429338,1.94319
1375931489338,1.95199
1375931549338,1.95955
1375931609338,1.95946
1375931669338,1.93951
1375931729338,1.93125
1375931789338,1.94649
1375931849338,1.95279
1375931909338,1.96161
1375931969338,1.96122
1375932029338,1.91870
1375932089338,1.95720
1375932149338,1.92997
1375932209338,1.93999
1375932269338,1.92917
1375932329338,1.94681
1375932389338,1.93958
1375932449338,1.96172
1375932509338,1.95552
1375932569338,1.93991
1375932629338,1.92892
1375932689338,1.96525
1375932749338,1.94535
1375932809338,1.94692
1375932869338,1.96707
1375932929338,1.95936
1375932989338,1.96149
1375933049338,1.96242
1375933109338,1.95411
1375933169338,1.95944
1375933229338,1.92186
1375933289338,1.94311
1375933349338,1.95647
1375933409338,1.98104
1375933469338,1.93071
1375933529338,1.94784
1375933589338,1.94644
1375933649338,1.94020
1375933709338,1.95141
1375933769338,1.95430
1375933829338,1.93782
1375933889338,1.93691
1375933949338,1.93125
1375934009338,1.91203
1375934069338,1.94712
1375934129338,1.95329
1375934189338,1.94364
1375934249338,1.89509
1375934309338,1.94468
1375934369338,1.91148
1375934429347,1.92985
1375934489347,1.95018
1375934549347,1.96544
1375934609347,1.95980
1375934669347,1.94299
1375934729347,1.96502
1375934789347,1.94206
1375934849347,1.96615
1375934909347,1.94246
1375934969347,1.95959
1375935029347,1.95489
1375935089347,1.98228
1375935149347,1.93577
1375935209347,1.93861
1375935269347,1.97926
1375935329347,1.93631
1375935389347,1.92446
1375935449347,1.94425
1375935509347,1.92891
1375935569347,1.93883
1375935629347,1.94904
1375935689347,1.95201
1375935749347,1.92222
1375935809347,1.95771
1375935869347,1.95006
1375935929347,1.95516
1375935989347,1.95936
1375936049347,2.01450
1375936109347,1.97949
1375936169347,1.91115
1375936229347,1.95123
1375936289347,1.96232
1375936349347,1.95802
1375936409347,1.94477
1375936469347,1.94666
1375936529347,1.95432
1375936589347,1.94899
1375936649347,1.92743
1375936709347,1.95149
1375936769347,1.96031
1375936829347,1.95563
1375936889347,1.96507
1375936949347,1.96005
1375937009347,2.03674
1375937069347,1.95688
1375937129347,1.94737
1375937189347,1.95893
1375937249347,1.92230
1375937309347,1.96151
1375937369347,1.96532
1375937429347,1.93716
1375937489347,1.95222
1375937549347,1.94952
1375937609347,1.94844
1375937669347,1.94223
1375937729347,1.95275
1375937789347,1.95370
1375937849347,1.65241
1375937909347,1.94962
1375937969347,1.94177
1375938029357,1.94184
1375938089357,1.95226
1375938149357,1.93472
1375938209357,1.95877
1375938269357,1.93503
1375938329357,1.92344
1375938389357,1.94183
1375938449357,1.94962
1375938509357,1.93396
1375938569357,1.95592
1375938629357,1.94425
1375938689357,1.95821
1375938749357,1.93569
1375938809357,1.98317
1375938869357,1.95380
1375938929357,1.93339
1375938989357,1.93241
1375939049357,1.97228
1375939109357,1.94228
1375939169357,1.95010
1375939229357,1.96343
1375939289357,1.93881
1375939349357,1.96185
1375939409357,1.94455
1375939469357,1.94366
1375939529357,1.93983
1375939589357,1.95967
1375939649357,1.94845
1375939709357,1.94528
1375939769357,1.94749
1375939829357,1.95293
1375939889357,1.95554
1375939949357,1.96123
1375940009357,1.95195
1375940069357,1.92717
1375940129357,1.98465
1375940189357,1.93256
1375940249357,1.96633
1375940309357,1.95830
1375940369357,1.94510
1375940429357,1.97637
1375940489357,1.95192
1375940549357,1.96519
1375940609357,1.96065
1375940669357,1.95740
1375940729357,1.95797
1375940789357,1.98090
1375940849357,1.95727
1375940909357,1.95371
1375940969357,1.95943
1375941029357,1.97163
1375941089357,1.96141
1375941149357,1.95840
1375941209357,1.98111
1375941269357,1.96636
1375941329357,1.94336
1375941389357,1.96213
1375941449357,1.96402
1375941509357,1.95167
1375941569357,1.96384
1375941629367,1.96092
1375941689367,1.97032
1375941749367,1.99608
1375941809366,1.94886
1375941869366,1.96348
1375941929367,1.97287
1375941989367,1.95994
1375942049367,1.97198
1375942109367,1.99911
1375942169367,1.97440
1375942229367,1.96908
1375942289367,1.95523
1375942349367,1.96117
1375942409367,1.96806
1375942469367,1.94971
1375942529366,1.96102
1375942589366,1.97198
1375942649366,1.94951
1375942709366,1.94923
1375942769366,1.97091
1375942829366,1.94736
1375942889366,1.93981
1375942949367,1.97359
1375943009367,1.96024
1375943069367,1.96409
1375943129367,1.95847
1375943189366,1.96568
1375943249367,1.96612
1375943309367,1.96180
1375943369367,1.97008
1375943429367,1.95869
1375943489367,1.98062
1375943549367,1.98979
1375943609367,1.96800
1375943669367,1.96974
1375943729367,1.97130
1375943789367,1.98866
1375943849366,1.96320
1375943909366,1.99874
1375943969366,1.98687
1375944029366,1.97850
1375944089366,1.97840
1375944149366,1.98701
1375944209366,1.96965
1375944269367,1.98109
1375944329367,1.95191
1375944389367,1.95258
1375944449367,1.99378
1375944509366,1.94963
1375944569366,1.95169
1375944629367,1.98244
1375944689367,1.98750
1375944749367,1.96468
1375944809367,1.96548
1375944869367,1.96584
1375944929367,1.99928
1375944989367,2.00572
1375945049367,1.96865
1375945109367,1.96250
1375945169367,1.93828
1375945229376,1.97336
1375945289376,1.98351
1375945349376,1.95088
1375945409376,1.97581
1375945469376,1.96699
1375945529376,1.98775
1375945589376,2.00765
1375945649376,1.96938
1375945709376,1.97311
1375945769376,1.99175
1375945829376,1.99653
1375945889376,1.94827
1375946429376,2.00697
1375946489376,1.94736
1375946549376,1.97064
1375946609376,1.98010
1375946669376,1.99977
1375946729376,1.96879
1375946789376,1.98347
1375946849376,1.99075
1375946909376,1.99018
1375946969376,2.00454
1375947029376,1.96463
1375947089376,1.97453
1375947149376,1.99847
1375947209376,2.00374
1375947269376,1.97073
1375947329376,1.99365
1375947389376,1.98990
1375947449376,1.96196
1375947509376,1.99625
1375947569376,1.97465
1375947629376,1.98020
1375947689376,1.98161
1375947749376,1.97513
1375947809376,1.95500
1375947869376,2.01225
1375947929376,1.98938
1375947989376,1.98533
1375948049376,2.00276
1375948109376,2.09339
1375948169376,1.99344
1375948229376,1.96507
1375948289376,1.99646
1375948349376,1.99729
1375948409376,1.97183
1375948469376,2.01203
1375948529376,1.97595
1375948589376,2.00915
1375948649376,1.98039
1375948709376,2.01234
1375948769376,1.99518
1375948829386,1.98849
1375948889386,1.98732
1375948949386,1.97200
1375949009386,1.99737
1375949069386,2.00875
1375949129386,2.02251
1375949189386,1.99469
1375949249386,2.00119
1375949309386,1.97895
1375949369386,2.00035
1375949429386,2.03012
1375949489386,2.00779
1375949549386,1.97634
1375949609386,1.99599
1375949669386,2.00424
1375949729386,2.01074
1375949789386,2.02405
1375949849386,1.96569
1375949909386,2.00331
1375949969386,1.97561
1375950029386,1.99936
1375950089386,1.99410
1375950149386,2.03169
1375950209386,2.05537
1375950269386,2.01321
1375950329386,1.98534
1375950389386,2.02406
1375950449386,1.97043
1375950509386,2.01443
1375950569386,1.99763
1375950629386,2.01648
1375950689386,2.01279
1375950749386,2.01509
1375950809386,1.99691
1375950869386,2.02184
1375950929386,2.00640
1375950989386,2.00420
1375951049386,2.03064
1375951109386,2.05319
1375951169386,2.03376
1375951229386,2.05014
1375951289386,2.03235
1375951349386,2.02157
1375951409386,2.00344
1375951469386,2.02231
1375951529386,2.03780
1375951589386,2.02295
1375951649386,2.02041
1375951709386,2.01646
1375951769386,2.03711
1375951829386,2.03783
1375951889386,2.05412
1375951949386,2.05035
1375952009386,2.02434
1375952069386,2.01898
1375952129386,2.03974
1375952189386,2.02470
1375952249386,2.06102
1375952309386,2.05109
1375952369386,2.05820
1375952429396,2.03698
1375952489396,2.01431
1375952549396,2.04445
1375952609396,2.02839
1375952669396,2.03719
1375952729396,2.05228
1375952789396,2.01874
1375952849396,2.05750
1375952909396,2.04520
1375952969396,2.06051
1375953029396,2.04647
1375953089396,2.04782
1375953149396,2.04732
1375953209396,2.02051
1375953269396,2.02129
1375953329396,2.03705
1375953389396,2.05512
1375953449396,2.03328
1375953509396,2.01685
1375953569396,2.03739
1375953629396,2.07299
1375953689396,2.04707
1375953749396,2.06981
1375953809396,2.05653
1375953869396,2.04785
1375953929396,2.05501
1375953989396,2.08346
1375954049396,2.06585
1375954109396,2.05822
1375954169396,2.06232
1375954229396,2.07823
1375954289396,2.08360
1375954349396,2.05424
1375954409396,2.08302
1375954469396,2.03998
1375954529396,2.06246
1375954589396,2.04460
1375954649396,2.06017
1375954709396,2.05429
1375954769396,2.07802
1375954829396,2.05692
1375954889396,2.04970
1375954949396,2.06232
1375955009396,2.03576
1375955069396,2.05781
1375955129396,2.05399
1375955189396,2.07406
1375955249396,2.05141
1375955309396,2.08073
1375955369396,2.04922
1375955429396,2.10060
1375955489396,2.07185
1375955549396,2.08956
1375955609396,2.07809
1375955669396,2.07540
1375955729396,2.08270
1375955789396,2.07001
1375955849396,2.08051
1375955909396,2.05912
1375955969396,2.09606
1375956029406,2.08126
1375956089406,2.06068
1375956149406,2.10859
1375956209406,2.12212
1375956269406,2.09156
1375956329406,2.09732
1375956389406,2.07448
1375956449406,2.05916
1375956509406,2.08585
1375956569406,2.12804
1375956629406,2.06139
1375956689406,2.07849
1375956749406,2.12699
1375956809406,2.08677
1375956869406,2.06466
1375956929406,2.07877
1375956989406,2.05677
1375957049406,2.09289
1375957109406,2.06867
1375957169406,2.02989
1375957229406,2.10879
1375957289406,2.10893
1375957349406,2.12308
1375957409406,2.09537
1375957469406,2.07935
1375957529406,2.09563
1375957589406,2.09261
1375957649406,2.10965
1375957709406,2.12117
1375957769406,2.09954
1375957829406,2.08524
1375957889406,2.10453
1375957949406,2.07531
1375958009406,2.09984
1375958069406,2.08884
1375958129406,2.08692
1375958189406,2.09954
1375958249406,2.09428
1375958309406,2.07711
1375958369406,2.09119
1375958429406,2.10970
1375958489406,2.11894
1375958549406,2.15601
1375958609406,2.11151
1375958669406,2.05134
1375958729406,2.12912
1375958789406,2.09217
1375958849406,2.09589
1375958909406,2.06871
1375958969406,2.05680
1375959029406,2.04997
1375959089406,2.09495
1375959149406,2.06776
1375959209406,2.09588
1375959269406,2.12021
1375959329406,2.09253
1375959389406,2.09262
1375959449406,2.09609
1375959509406,2.09907
1375959569406,2.08370
1375959629416,2.08851
1375959689416,2.10047
1375959749416,2.10762
1375959809416,2.11368
1375959869416,2.05595
1375959929416,2.09767
1375959989416,2.07656
1375960049416,2.08657
1375960109416,2.09751
1375960169416,2.09713
1375960229416,2.12727
1375960289416,2.10311
1375960349416,2.08417
1375960409416,2.10800
1375960469416,2.10251
1375960529416,2.08425
1375960589416,2.05345
1375960649416,2.07882
1375960709416,2.07784
1375960769416,2.07466
1375960829416,2.10730
1375960889416,2.06358
1375960949416,2.06931
1375961009416,2.04596
1375961069416,2.10377
1375961129416,2.10199
1375961189416,2.11352
1375961249416,2.06105
1375961309416,2.07100
1375961369416,2.08334
1375961429416,2.09722
1375961489416,2.08888
1375961549416,2.08833
1375961609416,2.10721
1375961669416,2.04238
1375961729416,2.07354
1375961789416,2.08303
1375961849416,2.10588
1375961909416,2.06003
1375961969416,2.06460
1375962029416,2.04310
1375962089416,2.04649
1375962149416,2.07645
1375962209416,2.06468
1375962269416,2.09938
1375962329416,2.08304
1375962389416,2.07255
1375962449416,2.06945
1375962509416,2.08221
1375962569416,2.07584
1375962629416,2.06086
1375962689416,2.06245
1375962749416,2.10875
1375962809416,2.10002
1375962869416,2.08095
1375962929416,2.05135
1375962989416,2.09038
1375963049416,2.09284
1375963109416,2.08123
1375963169416,2.06806
1375963229426,2.04448
1375963289426,2.09889
1375963349426,2.08493
1375963409426,2.08235
1375963469426,2.05463
1375963529426,2.02684
1375963589426,2.08305
1375963649426,2.06501
1375963709426,2.04731
1375963769426,2.07215
1375963829426,2.05777
1375963889426,2.05690
1375963949426,2.06465
1375964009426,2.08073
1375964069426,2.05378
1375964129426,2.10297
1375964189426,2.04083
1375964249426,2.03991
1375964309426,2.07364
1375964369426,2.06801
1375964429426,2.05187
1375964489426,2.08754
1375964549426,2.05328
1375964609426,2.04786
1375964669426,2.04124
1375964729426,2.04279
1375964789426,2.04831
1375964849426,2.07352
1375964909426,2.06346
1375964969426,2.06715
1375965029426,2.04918
1375965089426,2.06171
1375965149426,2.05053
1375965209426,2.06123
1375965269426,2.00815
1375965329426,2.05761
1375965389426,2.06538
1375965449426,2.05808
1375965509426,2.06404
1375965569426,2.04009
1375965629426,2.02590
1375965689426,2.05179
1375965749426,2.06607
1375965809426,2.03392
1375965869426,1.96749
1375965929426,2.06501
1375965989426,2.06457
1375966049426,2.02195
1375966109426,2.04489
1375966169426,2.07063
1375966229426,2.05494
1375966289426,2.07154
1375966349426,2.05099
1375966409426,2.05812
1375966469426,2.07547
1375966529426,2.00867
1375966589426,2.04210
1375966649426,2.04964
1375966709426,2.06166
1375966769426,2.03823
1375966829436,2.06230
1375966889436,2.03829
1375966949436,2.04605
1375967009436,2.05595
1375967069436,2.02335
1375967129436,2.02629
1375967189436,2.01909
1375967249436,2.03016
1375967309436,2.06640
1375967369436,2.02374
1375967429436,2.07373
1375967489436,2.08299
1375967549436,2.04803
1375967609436,2.02960
1375967669436,2.05347
1375967729436,2.03688
1375967789436,2.05883
1375967849436,2.03666
1375967909436,2.02981
1375967969436,2.05945
1375968029436,2.03924
1375968089436,2.03655
1375968149436,2.05331
1375968209437,2.01163
1375968269436,2.02914
1375968329436,2.03943
1375968389436,2.03476
1375968449436,2.04060
1375968509436,2.04336
1375968569436,2.03655
1375968629436,2.05270
1375968689436,2.04125
1375968749436,2.02989
1375968809436,2.03891
1375968869436,2.02486
1375968929436,2.02800
1375968989436,2.01849
1375969049436,2.00427
1375969109436,2.04881
1375969169436,2.04391
1375969229436,2.04451
1375969289436,2.03845
1375969349436,2.05786
1375969409436,2.03706
1375969469436,2.03819
1375969529436,2.06096
1375969589436,2.02921
1375969649436,2.01749
1375969709436,2.07080
1375969769436,2.04414
1375969829436,2.05307
1375969889436,2.07621
1375969949436,2.02063
1375970009436,2.12014
1375970069436,2.03471
1375970129436,2.03762
1375970189436,2.01948
1375970249436,2.03578
1375970309436,2.04008
1375970369436,2.04078
1375970429447,2.03519
1375970489447,2.03842
1375970549447,2.00795
1375970609447,2.05705
1375970669447,2.01495
1375970729447,2.07769
1375970789447,2.01593
1375970849447,2.03093
1375970909447,1.98868
1375970969447,1.98615
1375971029447,2.02571
1375971089447,2.00801
1375971149447,2.01224
1375971209447,2.00525
1375971269447,2.03855
1375971329447,2.05449
1375971389447,2.00913
1375971449447,2.04330
1375971509447,2.03475
1375971569447,2.05942
1375971629447,2.03125
1375971689447,2.05276
1375971749447,2.02278
1375971809447,2.03776
1375971869447,2.04286
1375971929447,2.03072
1375971989447,2.03433
1375972049447,2.01674
1375972109447,2.02198
1375972169447,2.03511
1375972229447,2.02101
1375972289447,2.03910
1375972349447,2.00910
1375972409447,2.07590
1375972469447,2.02384
1375972529447,2.02068
1375972589447,2.01476
1375972649447,2.02631
1375972709447,2.01606
1375972769447,2.03928
1375972829447,2.02268
1375972889447,2.04153
1375972949447,2.01004
1375973009447,2.01837
1375973069447,2.04940
1375973129447,2.00249
1375973189447,2.03205
1375973249447,2.01345
1375973309447,1.68821
1375973369447,2.04722
1375973429447,2.04059
1375973489447,2.00752
1375973549447,2.02957
1375973609447,1.98051
1375973669447,2.00604
1375973729447,2.04150
1375973789447,1.95349
1375973849447,2.03066
1375973909447,2.03049
1375973969447,2.02952
1375974029458,2.05397
1375974089458,2.02328
1375974149458,2.00236
1375974209458,2.01096
1375974269458,2.02945
1375974329458,2.05462
1375974389458,2.02553
1375974449458,2.03269
1375974509458,2.02828
1375974569458,2.01480
1375974629458,2.02893
1375974689458,2.05927
1375974749458,2.02065
1375974809458,2.05358
1375974869458,2.12276
1375974929458,2.02568
1375974989458,2.03259
1375975049458,2.02358
1375975109458,2.07266
1375975169458,2.04195
1375975229458,2.02406
1375975289458,2.03481
1375975349458,2.04572
1375975409458,2.00913
1375975469458,2.02484
1375975529458,2.02254
1375975589458,2.02820
1375975649458,2.02308
1375975709458,2.04781
1375975769458,2.02748
1375975829458,2.05492
1375975889458,2.02647
1375975949458,2.00464
1375976009458,2.00680
1375976069458,2.03427
1375976129458,2.02547
1375976189458,2.04004
1375976249458,2.02268
1375976309458,2.05181
1375976369458,2.03986
1375976429458,2.03284
1375976489458,2.04139
1375976549458,2.02925
1375976609458,2.04037
1375976669458,2.03511
1375976729458,2.02611
1375976789458,2.02315
1375976849458,2.02516
1375976909458,2.05828
1375976969458,2.01160
1375977029458,2.02050
1375977089458,1.99697
1375977149458,2.02992
1375977209458,2.01849
1375977269458,2.02875
1375977329458,2.05026
1375977389458,2.02136
1375977449458,2.03566
1375977509458,2.03942
1375977569458,2.03866
1375977629469,2.01962
1375977689469,1.98982
1375977749469,2.03018
1375977809469,2.02995
1375977869469,2.01095
1375977929469,2.01401
1375977989469,2.01084
1375978049469,2.03742
1375978109469,2.06846
1375978169469,2.02158
1375978229469,2.04557
1375978289469,2.02393
1375978349469,2.04726
1375978409469,2.04340
1375978469469,2.05411
1375978529469,2.04294
1375978589469,2.04827
1375978649469,2.05967
1375978709469,2.04782
1375978769469,2.06779
1375978829469,2.04621
1375978889469,2.05497
1375978949469,2.04467
1375979009469,1.99694
1375979069469,2.01930
1375979129469,2.01551
1375979189469,2.03891
1375979249469,2.02344
1375979309469,2.04607
1375979369469,2.03402
1375979429469,2.02109
1375979489469,2.05126
1375979549469,2.04823
1375979609469,2.08859
1375979669469,2.04653
1375979729469,2.05054
1375979789469,2.07424
1375979849469,2.04628
1375979909469,2.04027
1375979969469,2.02926
1375980029469,2.05092
1375980089469,2.02045
1375980149469,2.00795
1375980209469,2.04945
1375980269469,2.02593
1375980329469,2.06598
1375980389469,2.03749
1375980449469,2.06550
1375980509469,2.01873
1375980569469,2.06332
1375980629469,2.05093
1375980689469,2.06060
1375980749469,2.04828
1375980809469,2.04217
1375980869469,2.06625
1375980929469,2.02307
1375980989469,1.99705
1375981049469,2.05482
1375981109469,2.04776
1375981169469,2.06006
1375981229480,2.06555
1375981289480,2.06424
1375981349480,2.03756
1375981409480,2.05219
1375981469480,1.96053
1375981529480,2.05788
1375981589480,2.07531
1375981649480,2.01840
1375981709480,2.03091
1375981769480,2.10111
1375981829480,2.07103
1375981889480,2.06169
1375981949480,2.03761
1375982009480,2.05128
1375982069480,2.07901
1375982129480,2.03180
1375982189480,2.05484
1375982249480,1.98669
1375982309480,2.04108
1375982369480,2.05911
1375982429480,2.04699
1375982489480,2.03805
1375982549480,2.05694
1375982609480,2.05915
1375982669480,2.04326
1375982729480,2.07587
1375982789480,2.06337
1375982849480,2.08967
1375982909480,2.08560
1375982969480,2.02883
1375983029480,2.03011
1375983089480,2.04559
1375983149480,2.06450
1375983209480,2.05068
1375983269480,2.03967
1375983329480,2.03248
1375983389480,2.04196
1375983449480,2.01066
1375983509480,2.08752
1375983569480,2.13367
1375983629480,2.06940
1375983689480,2.05842
1375983749480,2.83045
1375983809480,2.07558
1375983869480,2.07380
1375983929480,2.03455
1375983989480,2.07557
1375984049480,2.07217
1375984109480,2.04777
1375984169480,2.06523
1375984229480,2.07120
1375984289480,2.05682
1375984349480,2.07543
1375984409480,2.05267
1375984469480,2.07253
1375984529480,2.08605
1375984589480,2.07246
1375984649480,2.06248
1375984709480,2.05771
1375984769480,2.05645
1375984829491,2.03224
1375984889491,2.07451
1375984949491,2.07759
1375985009491,2.07485
1375985069492,2.09537
1375985129491,2.08926
1375985189491,2.08344
1375985249491,2.09882
1375985309491,2.08496
1375985369491,2.10862
1375985429491,2.10407
1375985489491,2.10454
1375985549491,2.07469
1375985609491,2.07486
1375985669491,2.10235
1375985729491,2.09990
1375985789491,2.10248
1375985849491,2.10554